Marshall, TX

7:28 AM CDT on October 18, 2019 (GMT -0500)
Harrison County

Weather History for KASL - September, 2019

Change the Weather History Date:

Sunday, September 15, 2019

  Actual Average (KGGG) Record (KGGG)
Temperature  
Mean Temperature 81 °F 76 °F  
Max Temperature 95 °F 88 °F 105 °F (1939)
Min Temperature 67 °F 65 °F 48 °F (1902)
Degree Days  
Heating Degree Days 0 0  
Month to date heating degree days 0  
Since 1 July heating degree days 0  
Cooling Degree Days 16 11  
Month to date cooling degree days 204  
Year to date cooling degree days 2144  
Growing Degree Days 31 (Base 50)    
Moisture  
Dew Point 66 °F    
Average Humidity 61    
Maximum Humidity 91    
Minimum Humidity 33    
Precipitation  
Precipitation 0.00 in 0.10 in 3.20 in (1947)
Month to date precipitation 1.61  
Year to date precipitation 32.26  
Snow  
Snow 0.00 in - - ()
Month to date snowfall  
Since 1 July snowfall  
Since 1 September snowfall  
Snow Depth -    
Sea Level Pressure  
Sea Level Pressure 30.07 in    
Wind  
Wind Speed - (North)    
Max Wind Speed -    
Max Gust Speed -    
Visibility 10 miles    
Events      
T = Trace of Precipitation, MM = Missing Value Source: NWS Daily Summary

Daily Weather History Graph

Daily Weather History Graph

Search for Another Location

Airport or City:

Astronomy

Sep. 15, 2019 Rise Set
Actual Time 7:00 AM CDT 7:23 PM CDT
Civil Twilight 6:36 AM CDT 7:48 PM CDT
Nautical Twilight 6:07 AM CDT 8:16 PM CDT
Astronomical Twilight 5:38 AM CDT 8:46 PM CDT
Moon 8:34 PM CDT (9/15) 8:10 AM CDT (9/15)
Length of Visible Light 13h 11m
Length of Day
12h 22m
Full, 98% of the Moon is Illuminated
Sep 15
Full
Sep 21
Last Quarter
Sep 28
New
Oct 5
First Quarter
Oct 13
Full

Hourly Weather History & Observations

Time (CDT) Temp. Heat Index Dew Point Humidity Pressure Visibility Wind Dir Wind Speed Gust Speed Precip Events Conditions
12:15 AM 81.3 °F 83.5 °F 66.4 °F 60% 30.11 in 10.0 mi North - - N/A   Clear
12:35 AM 78.1 °F - 65.5 °F 65% 30.11 in 10.0 mi North - - N/A   Clear
12:55 AM 76.3 °F - 66.7 °F 72% 30.11 in 10.0 mi North - - N/A   Clear
1:15 AM 75.2 °F - 66.6 °F 74% 30.11 in 10.0 mi North - - N/A   Clear
1:35 AM 75.2 °F - 65.7 °F 72% 30.11 in 10.0 mi North - - N/A   Clear
1:55 AM 75.2 °F - 67.3 °F 76% 30.11 in 10.0 mi North - - N/A   Clear
2:15 AM 74.5 °F - 66.9 °F 77% 30.11 in 10.0 mi North - - N/A   Clear
2:35 AM 72.5 °F - 65.7 °F 79% 30.11 in 10.0 mi North - - N/A   Clear
2:55 AM 72.5 °F - 67.5 °F 84% 30.11 in 10.0 mi North - - N/A   Clear
3:15 AM 72.5 °F - 67.1 °F 83% 30.10 in 10.0 mi North - - N/A   Clear
3:35 AM 71.6 °F - 66.4 °F 84% 30.11 in 10.0 mi North - - N/A   Clear
3:55 AM 71.1 °F - 66.4 °F 85% 30.10 in 10.0 mi North - - N/A   Clear
4:15 AM 70.5 °F - 66.0 °F 86% 30.10 in 10.0 mi North - - N/A   Clear
4:35 AM 70.0 °F - 65.7 °F 86% 30.10 in 10.0 mi North - - N/A   Clear
4:55 AM 70.0 °F - 65.7 °F 86% 30.10 in 10.0 mi North - - N/A   Clear
5:15 AM 70.0 °F - 66.6 °F 89% 30.10 in 10.0 mi North - - N/A   Clear
5:35 AM 70.0 °F - 66.6 °F 89% 30.11 in 10.0 mi North - - N/A   Clear
5:55 AM 70.0 °F - 67.1 °F 91% 30.10 in 10.0 mi North - - N/A   Clear
6:15 AM 70.0 °F - 67.1 °F 91% 30.11 in 10.0 mi North - - N/A   Clear
6:35 AM 70.0 °F - 67.1 °F 91% 30.11 in 10.0 mi North - - N/A   Clear
6:55 AM 70.0 °F - 67.1 °F 91% 30.11 in 10.0 mi North - - N/A   Clear
7:15 AM 67.6 °F - 64.9 °F 91% 30.11 in 7.0 mi North - - N/A   Clear
7:35 AM 70.0 °F - 67.1 °F 91% 30.11 in 10.0 mi North - - N/A   Clear
7:55 AM 70.0 °F - 66.4 °F 88% 30.11 in 10.0 mi North - - N/A   Clear
8:15 AM 73.8 °F - 68.5 °F 84% 30.11 in 10.0 mi North - - N/A   Clear
8:35 AM 76.3 °F - 68.0 °F 75% 30.11 in 10.0 mi North - - N/A   Clear
8:55 AM 78.8 °F - 67.8 °F 69% 30.11 in 10.0 mi North - - N/A   Clear
9:15 AM 82.4 °F 86.3 °F 69.8 °F 66% 30.11 in 10.0 mi North - - N/A   Clear
9:35 AM 85.1 °F 89.1 °F 69.3 °F 59% 30.12 in 10.0 mi North - - N/A   Clear
9:55 AM 85.1 °F 87.9 °F 67.5 °F 55% 30.12 in 10.0 mi North - - N/A   Clear
10:15 AM 85.8 °F 88.2 °F 66.2 °F 52% 30.12 in 10.0 mi North - - N/A   Clear
10:35 AM 90.0 °F 92.8 °F 66.7 °F 46% 30.12 in 10.0 mi North - - N/A   Clear
10:55 AM 90.0 °F 92.0 °F 65.7 °F 44% 30.12 in 10.0 mi North - - N/A   Clear
11:15 AM 90.0 °F 92.0 °F 65.1 °F 44% 30.12 in 10.0 mi North - - N/A   Clear
11:35 AM 90.0 °F 91.0 °F 63.5 °F 41% 30.11 in 10.0 mi North - - N/A   Clear
11:55 AM 90.3 °F 91.2 °F 63.3 °F 40% 30.11 in 10.0 mi North - - N/A   Clear
12:15 PM 92.5 °F 93.7 °F 63.3 °F 38% 30.10 in 10.0 mi North - - N/A   Clear
12:35 PM 92.5 °F 93.3 °F 62.6 °F 37% 30.10 in 10.0 mi North - - N/A   Clear
12:55 PM 93.7 °F 94.9 °F 63.0 °F 36% 30.09 in 10.0 mi North - - N/A   Clear
1:15 PM 92.7 °F 92.9 °F 61.5 °F 35% 30.08 in 10.0 mi North - - N/A   Clear
1:35 PM 95.0 °F 96.0 °F 62.2 °F 34% 30.08 in 10.0 mi North - - N/A   Scattered Clouds
1:55 PM 94.5 °F 95.6 °F 62.6 °F 35% 30.06 in 10.0 mi North - - N/A   Mostly Cloudy
2:15 PM 93.4 °F 94.7 °F 63.9 °F 37% 30.06 in 10.0 mi North - - N/A   Mostly Cloudy
2:35 PM 93.0 °F 93.8 °F 62.4 °F 36% 30.05 in 10.0 mi North - - N/A   Scattered Clouds
2:55 PM 94.3 °F 94.9 °F 61.7 °F 34% 30.04 in 10.0 mi North - - N/A   Scattered Clouds
3:15 PM 95.0 °F 96.0 °F 62.2 °F 34% 30.03 in 10.0 mi North - - N/A   Scattered Clouds
3:35 PM 95.0 °F 95.6 °F 61.9 °F 33% 30.03 in 10.0 mi North - - N/A   Mostly Cloudy
3:55 PM 95.2 °F 95.9 °F 61.5 °F 33% 30.02 in 10.0 mi North - - N/A   Mostly Cloudy
4:15 PM 95.0 °F 96.0 °F 62.2 °F 34% 30.01 in 10.0 mi North - - N/A   Mostly Cloudy
4:35 PM 92.5 °F 93.7 °F 63.1 °F 38% 30.01 in 10.0 mi North - - N/A   Scattered Clouds
4:55 PM 95.0 °F 95.6 °F 62.1 °F 33% 30.01 in 10.0 mi North - - N/A   Scattered Clouds
5:10 PM 92.5 °F 93.0 °F 62.1 °F 36% 30.01 in 10.0 mi North - - N/A   Scattered Clouds
5:35 PM 95.0 °F 96.0 °F 62.2 °F 34% 30.01 in 10.0 mi North - - N/A   Scattered Clouds
5:55 PM 92.5 °F 93.0 °F 61.9 °F 36% 30.01 in 10.0 mi North - - N/A   Scattered Clouds
6:15 PM 92.5 °F 92.6 °F 61.5 °F 35% 30.01 in 10.0 mi North - - N/A   Scattered Clouds
6:35 PM 92.5 °F 93.7 °F 63.7 °F 38% 30.01 in 10.0 mi North - - N/A   Mostly Cloudy
6:55 PM 90.3 °F 91.5 °F 63.9 °F 41% 30.01 in 10.0 mi North - - N/A   Scattered Clouds
7:15 PM 90.0 °F 92.0 °F 65.7 °F 44% 30.01 in 10.0 mi North - - N/A   Clear
7:35 PM 87.4 °F 89.1 °F 65.1 °F 47% 30.01 in 10.0 mi North - - N/A   Clear
8:15 PM 85.1 °F 88.2 °F 67.8 °F 56% 30.02 in 10.0 mi North - - N/A   Clear
8:35 PM 79.7 °F - 66.7 °F 64% 30.02 in 10.0 mi North - - N/A   Clear
8:55 PM 79.0 °F - 66.9 °F 66% 30.03 in 10.0 mi North - - N/A   Clear
9:15 PM 77.4 °F - 67.1 °F 71% 30.04 in 10.0 mi North - - N/A   Clear
9:35 PM 77.4 °F - 68.0 °F 73% 30.04 in 10.0 mi North - - N/A   Clear
9:55 PM 76.3 °F - 67.8 °F 75% 30.05 in 10.0 mi North - - N/A   Clear
10:15 PM 76.8 °F - 68.0 °F 74% 30.05 in 10.0 mi North - - N/A   Clear
10:35 PM 76.3 °F - 68.4 °F 76% 30.05 in 10.0 mi North - - N/A   Clear
10:55 PM 76.3 °F - 68.2 °F 76% 30.05 in 10.0 mi North - - N/A   Clear
11:15 PM 76.3 °F - 68.0 °F 75% 30.05 in 10.0 mi North - - N/A   Clear
11:35 PM 75.7 °F - 68.0 °F 77% 30.05 in 10.0 mi North - - N/A   Clear
11:55 PM 75.2 °F - 68.0 °F 78% 30.05 in 10.0 mi North - - N/A   Clear